Regional Weather Roundup
Issued by NWS

Home | Current Version | Previous Version | Text Only | Print | Product List | Glossary On
Versions: 1 2 3 4 5 6 7 8 9 10 11 12 13 14 15 16 17 18 19 20 21 22 23 24 25 26 27 28 29 30 31 32 33 34 35 36 37 38 39 40 41 42 43 44 45 46 47 48 49 50
000
ASUS44 KFWD 030501
RWRTX
NORTH TEXAS HOURLY WEATHER ROUNDUP
NATIONAL WEATHER SERVICE FORT WORTH TX
1100 PM CST FRI DEC 02 2016

NOTE: "FAIR" INDICATES FEW OR NO CLOUDS BELOW 12,000 FEET WITH NO
SIGNIFICANT WEATHER AND/OR OBSTRUCTIONS TO VISIBILITY.

TXZ118-119-030600-
DALLAS/FORT WORTH METROPLEX

CITY           SKY/WX    TMP DP  RH WIND       PRES   REMARKS
DFW AIRPORT    CLOUDY    57  39  51 E7        30.13S
DALLAS LOVE    CLOUDY    57  38  48 E12       30.14S
FTW MEACHAM    CLOUDY    56  41  57 NE7       30.12F
DAL-EXECUTIVE  CLOUDY    56  39  53 E10       30.12F
FTW-ALLIANCE   CLOUDY    52  46  80 NE5       30.14F
FTW-NAS-JRB    CLOUDY    56  41  57 NE5       30.14R
FTW-SPINKS     CLOUDY    56  38  50 E9        30.13F
ARLINGTON      CLOUDY    56  37  49 E12       30.13F
GRAND PRAIRIE  CLOUDY    56  37  49 E8        30.15F
ADDISON        CLOUDY    56  42  60 E6        30.16S
MESQUITE       CLOUDY    55  38  51 E5        30.16R
LANCASTER      CLOUDY    56  39  53 E8        30.15F
$$

TXZ091>094-102>105-117-120-121-131>134-030600-
NORTH CENTRAL TEXAS

CITY           SKY/WX    TMP DP  RH WIND       PRES   REMARKS
SHRMAN/DENISON CLOUDY    49  48  97 NE9       30.19F
GAINESVILLE    CLOUDY    48  44  84 NE6       30.19S
BOWIE          DRIZZLE   48  45  88 CALM      30.18R
BRIDGEPORT     CLOUDY    49  47  90 NE6       30.16F
DECATUR        CLOUDY    47  44  87 NE6       30.15S
DENTON         LGT RAIN  51  44  77 NE9       30.14F
MCKINNEY       CLOUDY    52  43  71 NE5       30.16F
BONHAM         CLOUDY    48  43  81 NE7       30.18F
GREENVILLE     CLOUDY    54  39  58 CALM      30.16F
ROCKWALL       CLOUDY    54  41  61 E6        30.16R
TERRELL        CLOUDY    56  37  49 E9        30.15F
WAXAHACHIE     CLOUDY    54  41  63 E6        30.14F
CLEBURNE       CLOUDY    55  39  54 E10       30.13S
GRANBURY       CLOUDY    56  41  57 E6        30.14R
$$

TXZ083>090-098>101-113>116-127>130-139>142-154-155-030600-
WESTERN NORTH TEXAS

CITY           SKY/WX    TMP DP  RH WIND       PRES   REMARKS
WICHITA FALLS  CLOUDY    48  45  89 E7        30.18S
WF-KICKAPOO    LGT RAIN  49  45  86 E5        30.20R
VERNON         CLOUDY    49  45  84 NE9       30.19R
ABILENE        LGT RAIN  47  47 100 E10       30.08F
ABILENE-DYESS  CLOUDY    47  45  92 NE9       30.07F
CISCO          CLOUDY    48  45  87 E5        30.11R
BRECKENRIDGE   CLOUDY    50  46  84 E6        30.12S
GRAHAM         CLOUDY    47  47 100 NE6       30.13S
MINERAL WELLS  LGT RAIN  50  44  80 NE8       30.11F
STEPHENVILLE   CLOUDY    50  44  79 NE6       30.13S
COMANCHE       CLOUDY    50  47  92 E6        30.09F
COLEMAN        CLOUDY    50  46  86 NE9       30.07F
$$

TXZ143>147-156>162-174-175-030600-
CENTRAL TEXAS

CITY           SKY/WX    TMP DP  RH WIND       PRES   REMARKS
WACO           NOT AVBL
WACO-TSTC      RAIN      54  45  71 E7        30.12R
HILLSBORO      CLOUDY    55  40  57 E12       30.12S
CORSICANA      LGT RAIN  54  43  66 E12       30.13F
MEXIA          RAIN      49  45  84 E13       30.11R
HEARNE         RAIN      50  48  94 NE5       30.10R
CAMERON        DRIZZLE   50  48  95 E12       30.06F
TEMPLE         CLOUDY    49  47  93 NE9       30.09S
KILLEEN        LGT RAIN  49  47  92 NE10      30.06F
KILLEEN-SKYLRK LGT RAIN  50  46  87 E10       30.08F
FORT HOOD      LGT RAIN  49  47  93 NE8       30.05S FOG
GATESVILLE     LGT RAIN  48  46  93 E8        30.12R
HAMILTON       DRIZZLE   50  45  81 E8        30.09F
$$

TXZ095>097-106>112-122>126-135>138-148>153-164>167-030600-
EAST TEXAS

CITY           SKY/WX    TMP DP  RH WIND       PRES   REMARKS
PARIS          CLOUDY    50  39  66 E9        30.18F
SULPHUR SPRNGS CLOUDY    55  38  54 E3        30.19S
MOUNT PLEASANT CLOUDY    56  33  42 E7        30.18F
GILMER         LGT RAIN  51  41  68 E6        30.15F
MINEOLA        CLOUDY    55  37  50 SE5       30.16F
TYLER          CLOUDY    53  42  66 E10       30.14F
LONGVIEW       LGT RAIN  50  44  80 E12       30.13F
MARSHALL       CLOUDY    50  42  74 E3        30.20F
ATHENS         CLOUDY    52  41  66 E7        30.12F
PALESTINE      LGT SNOW  49  47  92 E3        30.16R
JACKSONVILLE   RAIN      48  46  91 E8        30.14F
HENDERSON      DRIZZLE   49  44  81 E6        30.15F
CENTER         LGT RAIN  52  47  82 E6        30.20S
NACOGDOCHES    MOCLDY    48  45  87 SE8       30.15F
LUFKIN         LGT RAIN  48  47  96 NE7       30.17S FOG
$$

SUPPLEMENTAL OBSERVATIONS (CENTRAL)

CITY           SKY/WX    TMP DP  RH WIND       PRES   REMARKS
$$

SUPPLEMENTAL OBSERVATIONS (WEST)

CITY           SKY/WX    TMP DP  RH WIND       PRES   REMARKS
$$

SUPPLEMENTAL OBSERVATIONS (EAST)

CITY           SKY/WX    TMP DP  RH WIND       PRES   REMARKS
$$

SUPPLEMENTAL OBSERVATIONS ARE A COLLECTION OF AUTOMATED INSTRUMENTS
THAT ARE MAINTAINED BY A VARIETY OF FEDERAL AND STATE AGENCIES.
CERTAIN ELEMENTS...SUCH AS HUMIDITY VALUES AND SUSTAINED WIND
SPEEDS...MAY BE APPROXIMATED.





USA.gov is the U.S. government's official web portal to all federal, state and local government web resources and services.